GW1618 Weather Reports


time (UTC)temp
C
wind
direction
speed
KPH
gust
KPH
rain 1hr
cm
rain 24hr
cm
rain mn
cm
humidity
%
barometer
mb
20260506051203 13 340 3.2 4.8 0.00 0.00 0.00 77 1015.6
20260506050936 13 315 1.6 4.8 0.00 0.00 0.00 76 1015.6
20260506050155 13 270 1.6 3.2 0.00 0.00 0.00 76 1015.5
20260506044642 13 39 1.6 3.2 0.00 0.00 0.00 74 1015.5
20260506044143 13 310 1.6 4.8 0.00 0.00 0.00 74 1015.5
20260506043639 13 9 1.6 4.8 0.00 0.00 0.00 73 1015.5
20260506043137 14 327 1.6 4.8 0.00 0.00 0.00 73 1015.5
20260506042913 14 222 3.2 11.3 0.00 0.00 0.00 73 1015.5
20260506042136 14 242 4.8 11.3 0.00 0.00 0.00 73 1015.5
20260506041633 14 279 4.8 8.0 0.00 0.00 0.00 72 1015.4
20260506041133 14 300 6.4 9.7 0.00 0.00 0.00 72 1015.4
20260506040635 14 299 6.4 11.3 0.00 0.00 0.00 72 1015.4
20260506040135 14 289 6.4 11.3 0.00 0.00 0.00 72 1015.0
20260506035632 15 303 6.4 9.7 0.00 0.00 0.00 72 1015.0
20260506035131 15 296 8.0 14.5 0.00 0.00 0.00 71 1015.0
20260506034632 15 314 6.4 14.5 0.00 0.00 0.00 71 1014.9
20260506034133 15 296 4.8 11.3 0.00 0.00 0.00 70 1014.9
20260506033634 15 273 4.8 6.4 0.00 0.00 0.00 70 1014.9
20260506033129 15 304 4.8 11.3 0.00 0.00 0.00 70 1014.7
20260506032630 15 321 6.4 11.3 0.00 0.00 0.00 69 1014.7
20260506032123 15 297 8.0 11.3 0.00 0.00 0.00 69 1014.7
20260506031615 16 318 8.0 11.3 0.00 0.00 0.00 68 1014.5
20260506031106 16 300 8.0 11.3 0.00 0.00 0.00 68 1014.5
20260506030559 16 306 6.4 12.9 0.00 0.00 0.00 67 1014.5
20260506030058 16 310 6.4 11.3 0.00 0.00 0.00 66 1014.5
20260506025548 16 304 8.0 12.9 0.00 0.00 0.00 65 1014.5
20260506025038 16 263 8.0 14.5 0.00 0.00 0.00 65 1014.5
20260506024534 16 273 8.0 14.5 0.00 0.00 0.00 64 1014.5
20260506024026 17 277 6.4 11.3 0.00 0.00 0.00 63 1014.5
20260506023521 17 298 8.0 11.3 0.00 0.00 0.00 64 1014.5
20260506023303 17 308 8.0 16.1 0.00 0.00 0.00 64 1014.5
20260506022515 17 302 8.0 16.1 0.00 0.00 0.00 63 1014.5
20260506022017 17 281 9.7 14.5 0.00 0.00 0.00 64 1014.4
20260506021515 17 304 11.3 16.1 0.00 0.00 0.00 64 1014.4
20260506021014 17 303 12.9 19.3 0.00 0.00 0.00 64 1014.4
20260506020513 17 310 11.3 19.3 0.00 0.00 0.00 63 1014.4
20260506020010 17 322 8.0 14.5 0.00 0.00 0.00 62 1014.4
20260506015753 17 302 6.4 16.1 0.00 0.00 0.00 62 1014.4
20260506015008 17 329 9.7 16.1 0.00 0.00 0.00 63 1014.4
20260506014751 17 329 8.0 16.1 0.00 0.00 0.00 62 1014.4
20260506014250 18 285 6.4 12.9 0.00 0.00 0.00 61 1014.4
20260506013757 18 328 4.8 8.0 0.00 0.00 0.00 61 1014.4
20260506013006 18 239 3.2 6.4 0.00 0.00 0.00 61 1014.4
20260506012753 18 206 3.2 6.4 0.00 0.00 0.00 60 1014.4
20260506012002 18 208 3.2 6.4 0.00 0.00 0.00 61 1014.4
20260506011455 18 203 3.2 8.0 0.00 0.00 0.00 62 1014.4
20260506011006 18 243 4.8 9.7 0.00 0.00 0.00 63 1014.4
20260506005944 17 140 6.4 9.7 0.00 0.00 0.00 63 1014.4
20260506005444 17 211 6.4 9.7 0.00 0.00 0.00 63 1014.4
20260506004942 17 161 6.4 11.3 0.00 0.00 0.00 64 1014.5
20260506004446 17 207 6.4 11.3 0.00 0.00 0.00 64 1014.5
20260506003942 17 254 6.4 11.3 0.00 0.00 0.00 64 1014.5
20260506003441 17 248 6.4 11.3 0.00 0.00 0.00 64 1014.5
20260506002942 17 218 6.4 17.7 0.00 0.00 0.00 64 1014.5
20260506002440 17 203 6.4 17.7 0.00 0.00 0.00 64 1014.5
20260506001939 17 204 4.8 14.5 0.00 0.00 0.00 64 1014.6
20260506001442 17 184 6.4 14.5 0.00 0.00 0.00 64 1014.6
20260506000933 17 235 8.0 16.1 0.00 0.00 0.00 64 1014.6
20260506000432 17 198 6.4 16.1 0.00 0.00 0.00 65 1014.8
20260505235932 17 190 6.4 11.3 0.00 0.00 0.00 64 1014.8
20260505235431 17 203 4.8 11.3 0.00 0.00 0.00 64 1014.8
20260505234929 17 194 4.8 11.3 0.00 0.00 0.00 65 1015.0
20260505234434 16 203 6.4 11.3 0.00 0.00 0.00 65 1015.0
20260505233932 16 194 6.4 11.3 0.00 0.00 0.00 66 1015.0
20260505233432 16 188 8.0 16.1 0.00 0.00 0.00 67 1015.1
20260505232930 16 340 8.0 16.1 0.00 0.00 0.00 68 1015.1
20260505232428 16 342 8.0 12.9 0.00 0.00 0.00 68 1015.1
20260505231930 16 331 8.0 14.5 0.00 0.00 0.00 68 1015.4
20260505231429 16 305 9.7 14.5 0.00 0.00 0.00 69 1015.4
20260505230930 16 270 8.0 14.5 0.00 0.00 0.00 68 1015.4
20260505230429 16 295 8.0 14.5 0.00 0.00 0.00 69 1015.5
20260505225929 16 313 8.0 14.5 0.00 0.00 0.00 68 1015.5
20260505225429 16 285 8.0 16.1 0.00 0.00 0.00 68 1015.5
20260505225227 16 275 6.4 16.1 0.00 0.00 0.00 69 1015.5
20260505224432 16 311 6.4 11.3 0.00 0.00 0.00 70 1015.5
20260505223932 16 295 6.4 11.3 0.00 0.00 0.00 69 1015.5
20260505223431 16 314 6.4 12.9 0.00 0.00 0.00 70 1015.5
20260505222929 15 255 8.0 16.1 0.00 0.00 0.00 70 1015.5
20260505222717 15 328 9.7 16.1 0.00 0.00 0.00 71 1015.5
20260505221929 15 326 9.7 16.1 0.00 0.00 0.00 71 1015.6
20260505221430 15 283 11.3 17.7 0.00 0.00 0.00 71 1015.6
20260505220929 16 9 8.0 17.7 0.00 0.00 0.00 69 1015.6
20260505220430 16 291 3.2 8.0 0.00 0.00 0.00 68 1015.7
20260505215929 16 200 4.8 9.7 0.00 0.00 0.00 67 1015.7
20260505215427 16 240 4.8 9.7 0.00 0.00 0.00 68 1015.7
20260505214918 16 268 4.8 9.7 0.00 0.00 0.00 68 1015.8
20260505214420 16 323 4.8 9.7 0.00 0.00 0.00 68 1015.8
20260505213920 16 231 3.2 6.4 0.00 0.00 0.00 68 1015.8
20260505213425 16 231 3.2 6.4 0.00 0.00 0.00 69 1015.9
20260505212926 15 302 4.8 6.4 0.00 0.00 0.00 69 1015.9
20260505212654 15 306 4.8 9.7 0.00 0.00 0.00 69 1015.9
20260505211917 16 287 3.2 9.7 0.00 0.00 0.00 68 1015.9
20260505211416 16 245 3.2 8.0 0.00 0.00 0.00 68 1015.9
20260505210939 16 306 4.8 11.3 0.00 0.00 0.00 68 1015.9
20260505205903 15 205 4.8 9.7 0.00 0.00 0.00 68 1016.0
20260505205401 15 220 4.8 6.4 0.00 0.00 0.00 68 1016.0
20260505205147 15 173 3.2 6.4 0.00 0.00 0.00 68 1016.0
20260505204401 15 192 3.2 6.4 0.00 0.00 0.00 68 1016.0
20260505203901 15 204 3.2 9.7 0.00 0.00 0.00 68 1016.0
20260505203649 15 298 3.2 9.7 0.00 0.00 0.00 68 1016.0
20260505202901 15 229 3.2 8.0 0.00 0.00 0.00 68 1016.0
20260505202405 15 202 4.8 9.7 0.00 0.00 0.00 68 1016.0
20260505202144 15 281 4.8 9.7 0.00 0.00 0.00 69 1015.9
20260505201404 15 277 4.8 9.7 0.00 0.00 0.00 69 1015.9
20260505200904 15 267 3.2 11.3 0.00 0.00 0.00 70 1015.9
20260505200404 15 232 4.8 11.3 0.00 0.00 0.00 69 1016.0
20260505200148 15 223 6.4 11.3 0.00 0.00 0.00 69 1016.0
20260505195405 15 200 4.8 11.3 0.00 0.00 0.00 70 1016.0
20260505195151 15 232 4.8 11.3 0.00 0.00 0.00 69 1016.0
20260505194407 15 200 3.2 9.7 0.00 0.00 0.00 70 1016.0
20260505193905 15 225 3.2 8.0 0.00 0.00 0.00 72 1016.0
20260505193357 15 335 4.8 9.7 0.00 0.00 0.00 72 1016.0
20260505192844 15 295 4.8 8.0 0.00 0.00 0.00 71 1016.0
20260505192339 14 229 6.4 11.3 0.00 0.00 0.00 72 1016.0
20260505191841 14 204 8.0 16.1 0.00 0.00 0.00 71 1015.9
20260505191341 14 229 8.0 16.1 0.00 0.00 0.00 71 1015.9
20260505190900 14 271 4.8 14.5 0.00 0.00 0.00 70 1015.9
20260505185836 14 223 6.4 9.7 0.00 0.00 0.00 71 1016.0
20260505185334 14 326 6.4 11.3 0.00 0.00 0.00 71 1016.0
20260505184835 14 282 6.4 11.3 0.00 0.00 0.00 71 1016.0
20260505184334 14 253 4.8 9.7 0.00 0.00 0.00 72 1016.0
20260505183834 14 264 6.4 16.1 0.00 0.00 0.00 72 1016.0
20260505183332 14 228 6.4 16.1 0.00 0.00 0.00 72 1016.0
20260505182852 14 304 4.8 11.3 0.00 0.00 0.00 72 1016.0
20260505182111 14 230 4.8 11.3 0.00 0.00 0.00 72 1015.9
20260505181604 13 208 8.0 17.7 0.00 0.00 0.00 72 1015.9
20260505180832 13 265 6.4 17.7 0.00 0.00 0.00 72 1015.9
20260505180319 14 291 4.8 9.7 0.00 0.00 0.00 72 1015.9
20260505175816 14 242 4.8 9.7 0.00 0.00 0.00 72 1015.9
20260505175311 13 231 4.8 11.3 0.00 0.00 0.00 73 1015.9
20260505174804 13 204 6.4 11.3 0.00 0.00 0.00 73 1015.8
20260505174257 13 282 4.8 11.3 0.00 0.00 0.00 73 1015.8
20260505173751 13 209 4.8 11.3 0.00 0.00 0.00 73 1015.8
20260505173245 13 285 6.4 12.9 0.00 0.00 0.00 73 1015.6
20260505172732 13 252 4.8 12.9 0.00 0.00 0.00 73 1015.6
20260505172231 13 268 4.8 9.7 0.00 0.00 0.00 73 1015.6
20260505171722 13 211 4.8 9.7 0.00 0.00 0.00 73 1015.5
20260505171221 13 189 4.8 11.3 0.00 0.00 0.00 73 1015.5
20260505170954 13 234 4.8 11.3 0.00 0.00 0.00 73 1015.5
20260505170213 13 241 6.4 16.1 0.00 0.00 0.00 74 1015.5
20260505165738 13 154 4.8 16.1 0.00 0.00 0.00 74 1015.5
20260505164714 13 247 4.8 14.5 0.00 0.00 0.00 74 1015.5
20260505164212 13 270 3.2 9.7 0.00 0.00 0.00 74 1015.5
20260505163709 13 283 4.8 14.5 0.00 0.00 0.00 74 1015.5
20260505163210 13 274 6.4 14.5 0.00 0.00 0.00 75 1015.4
20260505162707 13 242 4.8 12.9 0.00 0.00 0.00 73 1015.4
20260505162206 13 249 4.8 16.1 0.00 0.00 0.00 75 1015.4
20260505161704 13 211 6.4 16.1 0.00 0.00 0.00 76 1015.2
20260505161201 13 198 4.8 16.1 0.00 0.00 0.00 76 1015.2
20260505160701 13 220 4.8 9.7 0.00 0.00 0.00 76 1015.2
20260505160201 13 223 4.8 9.7 0.00 0.00 0.00 77 1015.2
20260505152701 13 196 6.4 14.5 0.00 0.00 0.00 78 1015.0
20260505152202 13 249 4.8 14.5 0.00 0.00 0.00 78 1015.0
20260505151703 13 197 6.4 11.3 0.00 0.00 0.00 79 1015.0
20260505151201 13 191 6.4 11.3 0.00 0.00 0.00 79 1015.0
20260505150701 13 185 4.8 12.9 0.00 0.00 0.00 79 1015.0
20260505150201 13 171 8.0 16.1 0.00 0.00 0.00 78 1014.8
20260505140203 13 194 3.2 6.4 0.00 0.00 0.00 80 1014.4
20260505130139 12 257 1.6 3.2 0.00 0.00 0.00 80 1013.9
20260505124630 12 254 3.2 6.4 0.00 0.00 0.00 80 1013.9
20260505124129 12 258 3.2 6.4 0.00 0.00 0.00 80 1013.9
20260505123628 12 259 1.6 4.8 0.00 0.00 0.00 80 1013.9
20260505123134 12 266 3.2 6.4 0.00 0.00 0.00 80 1013.7
20260505122618 12 264 3.2 6.4 0.00 0.00 0.00 80 1013.7
20260505122109 12 231 3.2 6.4 0.00 0.00 0.00 80 1013.6
20260505121603 12 258 3.2 4.8 0.00 0.00 0.00 80 1013.6
20260505121347 12 252 3.2 6.4 0.00 0.00 0.00 80 1013.6
20260505120557 12 243 3.2 8.0 0.00 0.00 0.00 80 1013.4
20260505120056 12 226 3.2 8.0 0.00 0.00 0.00 80 1013.4
20260505115551 12 226 3.2 6.4 0.00 0.00 0.00 80 1013.4
20260505115045 12 211 3.2 6.4 0.00 0.00 0.00 80 1013.4
20260505114545 12 269 3.2 6.4 0.00 0.00 0.00 80 1013.4
20260505114044 12 223 1.6 6.4 0.00 0.00 0.00 80 1013.4
20260505113541 12 220 1.6 4.8 0.00 0.00 0.00 81 1013.4
20260505113044 12 252 3.2 4.8 0.00 0.00 0.00 81 1013.4
20260505112557 12 240 1.6 4.8 0.00 0.00 0.00 81 1013.4
20260505111531 12 221 1.6 3.2 0.00 0.00 0.00 81 1013.4
20260505111315 12 221 3.2 4.8 0.00 0.00 0.00 81 1013.4
20260505110820 12 254 3.2 4.8 0.00 0.00 0.00 80 1013.3
20260505101506 12 181 4.8 9.7 0.00 0.00 0.00 81 1013.0
20260505101005 12 220 3.2 6.4 0.00 0.00 0.00 81 1013.0
20260505100511 12 171 3.2 6.4 0.00 0.00 0.00 81 1013.0
20260505100003 12 173 3.2 4.8 0.00 0.00 0.00 81 1013.0
20260505095503 12 226 1.6 4.8 0.00 0.00 0.00 82 1013.0
20260505095003 12 184 1.6 4.8 0.00 0.00 0.00 82 1012.9
20260505094504 12 232 1.6 4.8 0.00 0.00 0.00 82 1012.9
20260505094005 12 223 1.6 3.2 0.00 0.00 0.00 82 1012.9
20260505093502 12 229 1.6 3.2 0.00 0.00 0.00 82 1012.8
20260505093240 12 241 1.6 4.8 0.00 0.00 0.00 82 1012.8
20260505092458 12 154 1.6 4.8 0.00 0.00 0.00 82 1012.8
20260505091951 12 267 1.6 3.2 0.00 0.00 0.00 82 1012.8
20260505091721 12 267 1.6 4.8 0.00 0.00 0.00 82 1012.8
20260505090941 12 305 1.6 4.8 0.00 0.00 0.00 82 1012.8
20260505090713 12 291 3.2 4.8 0.00 0.00 0.00 82 1012.7
20260505090209 12 260 1.6 4.8 0.00 0.00 0.00 82 1012.7
20260505085431 12 233 3.2 4.8 0.00 0.00 0.00 82 1012.7
20260505084930 12 233 3.2 4.8 0.00 0.00 0.00 82 1012.8
20260505084705 12 251 1.6 4.8 0.00 0.00 0.00 82 1012.8
20260505083929 12 225 1.6 6.4 0.00 0.00 0.00 82 1012.8
20260505083428 12 208 3.2 8.0 0.00 0.00 0.00 82 1012.7
20260505082927 12 211 4.8 8.0 0.00 0.00 0.00 82 1012.7
20260505082423 12 200 4.8 6.4 0.00 0.00 0.00 82 1012.7
20260505081921 12 152 3.2 6.4 0.00 0.00 0.00 81 1012.7
20260505081415 12 130 3.2 4.8 0.00 0.00 0.00 81 1012.7
20260505080914 12 132 3.2 4.8 0.00 0.00 0.00 81 1012.7
20260505080404 12 149 3.2 6.4 0.00 0.00 0.00 81 1012.7
20260505075903 12 148 4.8 6.4 0.00 0.00 0.00 81 1012.7
20260505075403 12 150 4.8 8.0 0.00 0.00 0.00 81 1012.7
20260505074859 12 148 4.8 8.0 0.00 0.00 0.00 81 1012.5
20260505074358 12 148 3.2 6.4 0.00 0.00 0.00 81 1012.5
20260505073852 12 121 3.2 6.4 0.00 0.00 0.00 81 1012.5
20260505073351 12 135 3.2 6.4 0.00 0.00 0.00 80 1012.3
20260505072848 12 162 3.2 6.4 0.00 0.00 0.00 80 1012.3
20260505072625 12 157 3.2 6.4 0.00 0.00 0.00 80 1012.3
20260505071847 12 150 3.2 6.4 0.00 0.00 0.00 80 1012.2
20260505071342 12 152 3.2 6.4 0.00 0.00 0.00 80 1012.2
20260505070844 12 175 4.8 8.0 0.00 0.00 0.00 80 1012.2
20260505070356 12 146 6.4 8.0 0.00 0.00 0.00 79 1011.8
20260505065615 12 164 4.8 9.7 0.00 0.00 0.00 78 1011.8
20260505064833 12 149 3.2 8.0 0.00 0.00 0.00 79 1011.8
20260505064324 12 126 1.6 6.4 0.00 0.00 0.00 79 1011.8
20260505063823 13 269 3.2 6.4 0.00 0.00 0.00 79 1011.8
20260505063323 13 324 3.2 6.4 0.00 0.00 0.00 79 1011.6
20260505062827 13 330 3.2 6.4 0.00 0.00 0.00 79 1011.6
20260505062609 13 319 3.2 6.4 0.00 0.00 0.00 79 1011.6
20260505061819 13 330 4.8 8.0 0.00 0.00 0.00 79 1011.4
20260505061312 13 335 6.4 8.0 0.00 0.00 0.00 79 1011.4
20260505060808 13 321 4.8 6.4 0.00 0.00 0.00 78 1011.4
20260505060309 13 331 4.8 6.4 0.00 0.00 0.00 78 1011.4